Time,TemperatureF,DewpointF,PressureIn,WindDirection,WindDirectionDegrees,WindSpeedMPH,WindSpeedGustMPH,Humidity,HourlyPrecipIn,Conditions,Clouds,dailyrainin,SoftwareType,DateUTC
2013-10-13 00:09:00,61.7,61.1,29.96,NW,315,0.0,-999.0,98,-99.99,,,0.00,Acu-Link.com,2013-10-13 05:09:00,
2013-10-13 00:24:00,61.3,60.7,29.95,NW,315,0.0,-999.0,98,-99.99,,,0.00,Acu-Link.com,2013-10-13 05:24:00,
2013-10-13 00:42:00,61.0,60.4,29.95,NW,315,0.0,-999.0,98,-99.99,,,0.00,Acu-Link.com,2013-10-13 05:42:00,
2013-10-13 00:57:00,60.6,60.0,29.96,NW,315,0.0,-999.0,98,-99.99,,,0.00,Acu-Link.com,2013-10-13 05:57:00,
2013-10-13 01:12:00,60.3,59.7,29.96,NW,315,0.0,-999.0,98,-99.99,,,0.00,Acu-Link.com,2013-10-13 06:12:00,
2013-10-13 01:27:00,60.1,59.5,29.96,NW,315,0.0,-999.0,98,-99.99,,,0.00,Acu-Link.com,2013-10-13 06:27:00,
2013-10-13 01:43:00,59.7,59.1,29.96,NW,315,0.0,-999.0,98,-99.99,,,0.00,Acu-Link.com,2013-10-13 06:43:00,
2013-10-13 01:58:00,59.4,58.8,29.96,NW,315,0.0,-999.0,98,-99.99,,,0.00,Acu-Link.com,2013-10-13 06:58:00,
2013-10-13 02:16:00,59.4,58.8,29.97,NW,315,0.0,-999.0,98,-99.99,,,0.00,Acu-Link.com,2013-10-13 07:16:00,
2013-10-13 02:31:00,59.0,58.4,29.96,NW,315,0.0,-999.0,98,-99.99,,,0.00,Acu-Link.com,2013-10-13 07:31:00,
2013-10-13 02:46:00,59.0,58.4,29.96,NW,315,0.0,-999.0,98,-99.99,,,0.00,Acu-Link.com,2013-10-13 07:46:00,
2013-10-13 03:02:00,59.0,58.4,29.97,NW,315,0.0,-999.0,98,-99.99,,,0.00,Acu-Link.com,2013-10-13 08:02:00,
2013-10-13 03:17:00,59.4,58.8,29.97,NW,315,0.0,-999.0,98,-99.99,,,0.00,Acu-Link.com,2013-10-13 08:17:00,
2013-10-13 03:33:00,59.4,58.8,29.97,NW,315,0.0,-999.0,98,-99.99,,,0.00,Acu-Link.com,2013-10-13 08:33:00,
2013-10-13 03:48:00,59.0,58.4,29.97,NW,315,0.0,-999.0,98,-99.99,,,0.00,Acu-Link.com,2013-10-13 08:48:00,
2013-10-13 04:03:00,58.8,58.2,29.97,NW,315,0.0,-999.0,98,-99.99,,,0.00,Acu-Link.com,2013-10-13 09:03:00,
2013-10-13 04:18:00,59.5,58.9,29.98,North,0,1.1,-999.0,98,-99.99,,,0.00,Acu-Link.com,2013-10-13 09:18:00,
2013-10-13 04:33:00,62.4,61.8,29.97,East,90,0.0,-999.0,98,-99.99,,,0.00,Acu-Link.com,2013-10-13 09:33:00,
2013-10-13 04:49:00,63.0,62.4,29.98,East,90,0.0,-999.0,98,-99.99,,,0.00,Acu-Link.com,2013-10-13 09:49:00,
2013-10-13 05:04:00,63.0,62.4,29.99,NNE,22,0.0,-999.0,98,-99.99,,,0.00,Acu-Link.com,2013-10-13 10:04:00,
2013-10-13 05:19:00,63.5,62.9,29.99,NE,45,0.0,-999.0,98,-99.99,,,0.00,Acu-Link.com,2013-10-13 10:19:00,
2013-10-13 05:34:00,63.7,63.1,30.00,North,0,0.0,-999.0,98,-99.99,,,0.00,Acu-Link.com,2013-10-13 10:34:00,
2013-10-13 05:49:00,64.2,63.6,30.02,North,0,0.0,-999.0,98,-99.99,,,0.00,Acu-Link.com,2013-10-13 10:49:00,
2013-10-13 06:04:00,64.2,63.6,30.02,NW,315,0.0,-999.0,98,-99.99,,,0.00,Acu-Link.com,2013-10-13 11:04:00,
2013-10-13 06:20:00,64.2,63.6,30.03,WNW,292,0.0,-999.0,98,-99.99,,,0.00,Acu-Link.com,2013-10-13 11:20:00,
2013-10-13 06:35:00,64.2,63.6,30.03,West,270,0.0,-999.0,98,-99.99,,,0.00,Acu-Link.com,2013-10-13 11:35:00,
2013-10-13 06:50:00,64.2,63.6,30.03,NE,45,2.7,-999.0,98,-99.99,,,0.00,Acu-Link.com,2013-10-13 11:50:00,
2013-10-13 07:05:00,64.2,63.6,30.03,North,0,1.1,-999.0,98,-99.99,,,0.00,Acu-Link.com,2013-10-13 12:05:00,
2013-10-13 07:20:00,64.2,63.6,30.03,NNW,337,1.1,-999.0,98,-99.99,,,0.00,Acu-Link.com,2013-10-13 12:20:00,
2013-10-13 07:35:00,64.2,63.6,30.04,WNW,292,1.7,-999.0,98,-99.99,,,0.00,Acu-Link.com,2013-10-13 12:35:00,
2013-10-13 07:50:00,64.2,63.6,30.05,ESE,112,1.7,-999.0,98,-99.99,,,0.00,Acu-Link.com,2013-10-13 12:50:00,
2013-10-13 08:06:00,64.4,63.8,30.05,NNE,22,2.2,-999.0,98,-99.99,,,0.00,Acu-Link.com,2013-10-13 13:06:00,
2013-10-13 08:21:00,64.8,64.2,30.06,NNE,22,1.7,-999.0,98,-99.99,,,0.00,Acu-Link.com,2013-10-13 13:21:00,
2013-10-13 08:36:00,64.9,64.3,30.07,ENE,67,1.1,-999.0,98,-99.99,,,0.00,Acu-Link.com,2013-10-13 13:36:00,
2013-10-13 08:51:00,65.1,64.5,30.07,ENE,67,2.7,-999.0,98,-99.99,,,0.00,Acu-Link.com,2013-10-13 13:51:00,
2013-10-13 09:06:00,66.0,65.4,30.08,North,0,1.7,-999.0,98,-99.99,,,0.00,Acu-Link.com,2013-10-13 14:06:00,
2013-10-13 09:21:00,66.7,66.1,30.08,NNW,337,5.8,-999.0,98,-99.99,,,0.00,Acu-Link.com,2013-10-13 14:21:00,
2013-10-13 09:36:00,68.2,67.6,30.08,NE,45,2.2,-999.0,98,-99.99,,,0.00,Acu-Link.com,2013-10-13 14:36:00,
2013-10-13 09:51:00,68.7,68.1,30.09,NE,45,3.2,-999.0,98,-99.99,,,0.00,Acu-Link.com,2013-10-13 14:51:00,
2013-10-13 10:06:00,68.9,68.3,30.09,NE,45,1.7,-999.0,98,-99.99,,,0.00,Acu-Link.com,2013-10-13 15:06:00,
2013-10-13 10:22:00,70.0,69.4,30.10,East,90,1.1,-999.0,98,-99.99,,,0.00,Acu-Link.com,2013-10-13 15:22:00,
2013-10-13 10:37:00,70.2,69.6,30.09,East,90,1.7,-999.0,98,-99.99,,,0.00,Acu-Link.com,2013-10-13 15:37:00,
2013-10-13 10:52:00,70.3,62.0,30.09,North,0,4.7,-999.0,75,-99.99,,,0.00,Acu-Link.com,2013-10-13 15:52:00,
2013-10-13 11:07:00,73.8,48.0,30.09,NNE,22,1.7,-999.0,40,-99.99,,,0.00,Acu-Link.com,2013-10-13 16:07:00,
2013-10-13 11:22:00,73.0,44.5,30.10,ESE,112,2.7,-999.0,36,-99.99,,,0.00,Acu-Link.com,2013-10-13 16:22:00,
2013-10-13 11:37:00,72.7,41.9,30.09,ESE,112,4.2,-999.0,33,-99.99,,,0.00,Acu-Link.com,2013-10-13 16:37:00,
2013-10-13 11:53:00,74.3,53.9,30.09,East,90,2.7,-999.0,49,-99.99,,,0.00,Acu-Link.com,2013-10-13 16:53:00,
2013-10-13 12:08:00,73.0,45.2,30.08,East,90,1.7,-999.0,37,-99.99,,,0.00,Acu-Link.com,2013-10-13 17:08:00,
2013-10-13 12:23:00,77.5,59.0,30.09,NNE,22,2.2,-999.0,53,-99.99,,,0.00,Acu-Link.com,2013-10-13 17:23:00,
2013-10-13 12:38:00,77.0,63.4,30.08,SW,225,1.1,-999.0,63,-99.99,,,0.00,Acu-Link.com,2013-10-13 17:38:00,
2013-10-13 12:53:00,77.0,63.0,30.07,North,0,2.7,-999.0,62,-99.99,,,0.00,Acu-Link.com,2013-10-13 17:53:00,
2013-10-13 13:08:00,75.9,62.8,30.07,West,270,3.7,-999.0,64,-99.99,,,0.00,Acu-Link.com,2013-10-13 18:08:00,
2013-10-13 13:23:00,77.0,63.9,30.06,NE,45,2.2,-999.0,64,-99.99,,,0.00,Acu-Link.com,2013-10-13 18:23:00,
2013-10-13 13:38:00,77.4,65.6,30.06,NNE,22,4.2,-999.0,67,-99.99,,,0.00,Acu-Link.com,2013-10-13 18:38:00,
2013-10-13 13:53:00,77.5,65.2,30.05,NNE,22,2.7,-999.0,66,-99.99,,,0.00,Acu-Link.com,2013-10-13 18:53:00,
2013-10-13 14:09:00,79.2,67.3,30.04,ESE,112,3.7,-999.0,67,-99.99,,,0.00,Acu-Link.com,2013-10-13 19:09:00,
2013-10-13 14:24:00,79.9,67.9,30.04,NW,315,3.2,-999.0,67,-99.99,,,0.00,Acu-Link.com,2013-10-13 19:24:00,
2013-10-13 14:39:00,81.0,69.0,30.03,ESE,112,2.7,-999.0,67,-99.99,,,0.00,Acu-Link.com,2013-10-13 19:39:00,
2013-10-13 14:54:00,78.8,66.9,30.03,NE,45,3.2,-999.0,67,-99.99,,,0.00,Acu-Link.com,2013-10-13 19:54:00,
2013-10-13 15:09:00,80.8,68.4,30.03,East,90,4.2,-999.0,66,-99.99,,,0.00,Acu-Link.com,2013-10-13 20:09:00,
2013-10-13 15:24:00,78.3,66.4,30.03,WSW,247,2.7,-999.0,67,-99.99,,,0.00,Acu-Link.com,2013-10-13 20:24:00,
2013-10-13 15:39:00,80.6,67.7,30.03,NNW,337,4.7,-999.0,65,-99.99,,,0.00,Acu-Link.com,2013-10-13 20:39:00,
2013-10-13 15:54:00,79.7,67.8,30.02,NNE,22,2.2,-999.0,67,-99.99,,,0.01,Acu-Link.com,2013-10-13 20:54:00,
2013-10-13 16:09:00,80.1,67.7,30.02,NNE,22,2.7,-999.0,66,-99.99,,,0.01,Acu-Link.com,2013-10-13 21:09:00,
2013-10-13 16:25:00,77.9,66.5,30.02,West,270,0.0,-999.0,68,-99.99,,,0.01,Acu-Link.com,2013-10-13 21:25:00,
2013-10-13 16:40:00,78.3,66.4,30.01,NW,315,2.2,-999.0,67,-99.99,,,0.01,Acu-Link.com,2013-10-13 21:40:00,
2013-10-13 16:55:00,78.6,67.1,30.01,West,270,0.0,-999.0,68,-99.99,,,0.01,Acu-Link.com,2013-10-13 21:55:00,
2013-10-13 17:10:00,78.3,66.8,30.01,NE,45,2.7,-999.0,68,-99.99,,,0.01,Acu-Link.com,2013-10-13 22:10:00,
2013-10-13 17:25:00,77.0,65.6,30.01,NNE,22,0.0,-999.0,68,-99.99,,,0.01,Acu-Link.com,2013-10-13 22:25:00,
2013-10-13 17:40:00,75.7,63.9,30.01,East,90,0.0,-999.0,67,-99.99,,,0.01,Acu-Link.com,2013-10-13 22:40:00,
2013-10-13 17:55:00,74.5,60.6,30.01,NE,45,0.0,-999.0,62,-99.99,,,0.01,Acu-Link.com,2013-10-13 22:55:00,
2013-10-13 18:10:00,73.2,58.0,30.01,NE,45,0.0,-999.0,59,-99.99,,,0.01,Acu-Link.com,2013-10-13 23:10:00,
2013-10-13 18:25:00,71.8,49.3,30.02,SE,135,0.0,-999.0,45,-99.99,,,0.01,Acu-Link.com,2013-10-13 23:25:00,
2013-10-13 18:41:00,70.5,49.3,30.03,West,270,2.2,-999.0,47,-99.99,,,0.01,Acu-Link.com,2013-10-13 23:41:00,
2013-10-13 18:56:00,69.8,49.8,30.03,NW,315,0.0,-999.0,49,-99.99,,,0.01,Acu-Link.com,2013-10-13 23:56:00,
2013-10-13 19:11:00,68.9,44.2,30.03,ENE,67,0.0,-999.0,41,-99.99,,,0.01,Acu-Link.com,2013-10-14 00:11:00,
2013-10-13 19:26:00,68.2,43.6,30.04,NW,315,2.7,-999.0,41,-99.99,,,0.01,Acu-Link.com,2013-10-14 00:26:00,
2013-10-13 19:42:00,67.5,39.6,30.04,NNW,337,0.0,-999.0,36,-99.99,,,0.01,Acu-Link.com,2013-10-14 00:42:00,
2013-10-13 19:57:00,66.9,39.8,30.04,West,270,0.0,-999.0,37,-99.99,,,0.01,Acu-Link.com,2013-10-14 00:57:00,
2013-10-13 20:12:00,66.4,42.6,30.05,NNE,22,0.0,-999.0,42,-99.99,,,0.01,Acu-Link.com,2013-10-14 01:12:00,
2013-10-13 20:27:00,66.2,47.0,30.05,NNE,22,4.2,-999.0,50,-99.99,,,0.01,Acu-Link.com,2013-10-14 01:27:00,
2013-10-13 20:42:00,66.0,49.4,30.05,ENE,67,1.7,-999.0,55,-99.99,,,0.01,Acu-Link.com,2013-10-14 01:42:00,
2013-10-13 20:57:00,65.7,50.0,30.06,East,90,2.2,-999.0,57,-99.99,,,0.01,Acu-Link.com,2013-10-14 01:57:00,
2013-10-13 21:12:00,65.3,51.5,30.05,NNE,22,2.7,-999.0,61,-99.99,,,0.01,Acu-Link.com,2013-10-14 02:12:00,
2013-10-13 21:28:00,65.1,51.8,30.05,ENE,67,1.7,-999.0,62,-99.99,,,0.01,Acu-Link.com,2013-10-14 02:28:00,
2013-10-13 21:43:00,64.6,50.8,30.05,East,90,0.0,-999.0,61,-99.99,,,0.01,Acu-Link.com,2013-10-14 02:43:00,
2013-10-13 21:58:00,64.0,48.9,30.05,WNW,292,0.0,-999.0,58,-99.99,,,0.01,Acu-Link.com,2013-10-14 02:58:00,
2013-10-13 22:13:00,63.5,45.6,30.05,NNE,22,0.0,-999.0,52,-99.99,,,0.01,Acu-Link.com,2013-10-14 03:13:00,
2013-10-13 22:28:00,63.0,40.2,30.05,NNE,22,0.0,-999.0,43,-99.99,,,0.01,Acu-Link.com,2013-10-14 03:28:00,
2013-10-13 22:43:00,62.2,32.7,30.05,NNE,22,0.0,-999.0,33,-99.99,,,0.01,Acu-Link.com,2013-10-14 03:43:00,
2013-10-13 22:58:00,61.7,12.0,30.06,East,90,0.0,-999.0,14,-99.99,,,0.01,Acu-Link.com,2013-10-14 03:58:00,
2013-10-13 23:13:00,61.2,60.6,30.05,NNW,337,0.0,-999.0,98,-99.99,,,0.01,Acu-Link.com,2013-10-14 04:13:00,
2013-10-13 23:28:00,60.6,60.0,30.05,NNW,337,0.0,-999.0,98,-99.99,,,0.01,Acu-Link.com,2013-10-14 04:28:00,
2013-10-13 23:44:00,59.7,59.1,30.05,NNW,337,0.0,-999.0,98,-99.99,,,0.01,Acu-Link.com,2013-10-14 04:44:00,
2013-10-13 23:59:00,59.0,58.4,30.05,NNW,337,0.0,-999.0,98,-99.99,,,0.01,Acu-Link.com,2013-10-14 04:59:00,